This is the latest recevied weather packets stored in our database for station/object K2RMB. If no packets are shown the sender has not sent any weather packets the latest 10 day(s).
| Time | Temp. | Humidity | Pressure | Rain* | Wind** | Luminosity | Snow |
|---|---|---|---|---|---|---|---|
| 1777426022 | 14.44° C | 51% | 1018.1 hPa | 0 mm | - | 0 W/m² | - |
| 1777425717 | 14.44° C | 49% | 1018.1 hPa | 0 mm | - | 0 W/m² | - |
| 1777425412 | 14.44° C | 48% | 1018.1 hPa | 0 mm | - | 0 W/m² | - |
| 1777425109 | 15° C | 47% | 1018.1 hPa | 0 mm | - | 0 W/m² | - |
| 1777424805 | 15° C | 46% | 1018.1 hPa | 0 mm | - | 0 W/m² | - |
| 1777424500 | 15.56° C | 45% | 1018.1 hPa | 0 mm | - | 0 W/m² | - |
| 1777424196 | 15.56° C | 48% | 1017.8 hPa | 0 mm | - | 0 W/m² | - |
| 1777423894 | 15.56° C | 44% | 1017.8 hPa | 0 mm | - | 0 W/m² | - |
| 1777423590 | 15.56° C | 45% | 1017.8 hPa | 0 mm | - | 0 W/m² | - |
| 1777423285 | 15.56° C | 45% | 1017.4 hPa | 0 mm | - | 0 W/m² | - |
| 1777422980 | 15.56° C | 46% | 1017.8 hPa | 0 mm | - | 0 W/m² | - |
| 1777422676 | 16.11° C | 44% | 1017.8 hPa | 0 mm | - | 0 W/m² | - |
| 1777422371 | 16.11° C | 45% | 1017.8 hPa | 0 mm | - | 0 W/m² | - |
| 1777422066 | 16.11° C | 46% | 1017.8 hPa | 0 mm | - | 0 W/m² | - |
| 1777421761 | 16.11° C | 47% | 1017.8 hPa | 0 mm | - | 0 W/m² | - |
| 1777421456 | 16.67° C | 44% | 1017.8 hPa | 0 mm | - | 0 W/m² | - |
| 1777421153 | 16.67° C | 46% | 1017.4 hPa | 0 mm | - | 0 W/m² | - |
| 1777420849 | 16.67° C | 43% | 1017.4 hPa | 0 mm | - | 1 W/m² | - |
| 1777420545 | 17.22° C | 42% | 1017.4 hPa | 0 mm | - | 3 W/m² | - |
| 1777420241 | 17.22° C | 41% | 1017.4 hPa | 0 mm | - | 6 W/m² | - |
| 1777419937 | 17.22° C | 42% | 1017.4 hPa | 0 mm | - | 10 W/m² | - |
| 1777419634 | 17.22° C | 41% | 1017.1 hPa | 0 mm | - | 9 W/m² | - |
| 1777419333 | 17.78° C | 41% | 1017.1 hPa | 0 mm | - | 11 W/m² | - |
| 1777419032 | 17.78° C | 41% | 1017.4 hPa | 0 mm | - | 13 W/m² | - |
| 1777418731 | 17.78° C | 40% | 1017.4 hPa | 0 mm | - | 10 W/m² | - |
* Rain latest hour (hover to see other rain measurements)
** Current wind speed in m/s (hover to see current wind gust speed)